Vorticity
nan nan nan nan nan nan nan nan nan nan nan nan nan nan nan nan nan nan nan nan nan nan nan nan nan nan nan nan nan nan nan nan nan nan nan nan nan nan nan nan nan nan nan
nan 8 9 8 8 7 7 9 10 8 9 10 9 10 9 9 10 9 9 10 11 9 9 8 7 6 8 10 13 15 10 8 12 9 6 11 10 11 11 6 8 7 nan
nan 8 10 8 8 8 7 8 10 9 9 10 9 9 9 9 9 10 10 10 10 9 9 8 7 8 9 7 10 12 12 12 11 8 7 8 11 10 9 10 10 10 nan
nan 9 9 10 9 10 9 9 9 8 9 10 9 9 9 9 9 9 10 10 10 10 10 8 9 12 12 8 9 9 13 9 8 10 10 9 8 10 9 8 8 13 nan
nan 9 10 9 8 11 13 11 9 8 10 9 8 9 9 10 11 10 9 10 10 10 10 9 10 12 11 11 12 11 12 9 8 8 6 7 9 12 10 8 10 9 nan
nan 12 10 9 10 8 12 13 9 9 9 9 10 10 9 10 12 11 8 9 10 9 8 9 12 8 6 6 13 17 12 12 8 7 12 8 8 8 10 10 8 9 nan
nan 13 14 10 8 9 9 12 10 8 9 10 11 11 11 14 14 10 5 6 10 10 10 9 8 8 7 6 6 8 10 14 14 10 12 10 12 12 8 8 10 9 nan
nan 12 13 11 9 10 10 10 9 10 10 10 11 10 10 13 16 12 8 6 10 10 9 9 10 9 8 8 6 7 5 5 11 16 15 13 13 15 11 11 9 7 nan
nan 11 10 9 9 9 10 8 8 10 11 12 12 12 9 11 12 9 8 8 10 10 9 9 10 12 13 8 7 8 6 4 6 10 15 17 14 10 8 8 10 9 nan
nan 11 12 9 9 9 11 8 9 11 11 11 14 15 10 11 9 8 3 7 10 10 11 14 11 10 13 7 6 9 7 10 6 4 5 9 10 11 9 6 8 8 nan
nan 10 11 9 8 9 8 9 11 10 11 11 12 12 10 9 12 12 3 5 11 10 8 9 13 14 10 7 7 8 11 12 10 8 8 7 8 8 7 10 8 7 nan
nan 10 10 10 8 10 9 9 10 10 9 10 10 9 10 13 14 13 8 3 8 11 8 9 15 14 10 8 6 11 12 5 8 9 9 10 10 9 10 11 9 7 nan
nan 10 10 10 9 10 10 9 9 10 9 10 9 9 9 9 15 17 10 6 3 6 14 16 14 12 7 9 10 10 6 7 9 9 10 10 11 11 9 9 12 12 nan
nan 8 10 9 8 8 10 9 9 9 10 10 9 9 9 8 8 11 12 12 11 6 11 16 15 13 10 7 9 10 10 10 9 9 10 10 9 12 11 10 10 11 nan
nan 9 9 9 10 9 10 10 8 10 9 8 9 10 8 9 14 11 9 10 11 12 7 8 12 12 11 9 9 10 9 9 9 10 10 11 11 12 11 10 9 10 nan
nan 7 9 9 10 10 10 11 12 12 10 6 7 7 8 13 18 14 8 8 11 8 1 8 10 12 11 9 8 9 10 9 8 8 8 9 10 10 11 12 13 10 nan
nan 12 16 12 11 14 14 12 11 10 13 17 14 7 7 12 12 14 10 13 8 0 5 6 9 10 10 10 9 9 9 11 10 9 9 8 9 9 9 9 12 10 nan
nan 11 13 15 13 5 8 9 14 22 25 16 13 14 14 20 17 13 7 0 7 11 14 10 8 9 9 10 10 9 10 11 11 11 10 11 10 9 8 9 10 10 nan
nan 13 13 18 11 5 7 11 13 4 8 12 14 19 16 14 20 22 10 1 8 11 10 10 11 9 9 10 11 14 12 10 10 10 11 10 10 11 10 9 11 12 nan
nan 12 12 15 16 19 12 6 8 9 3 5 10 11 15 13 12 12 11 9 8 10 12 10 9 10 11 9 10 11 12 12 11 11 12 12 11 10 11 11 11 11 nan
nan 13 12 10 11 15 15 15 8 9 9 7 12 18 10 4 11 9 10 14 11 9 10 10 11 11 10 10 11 10 10 11 11 12 11 12 12 11 11 11 11 10 nan
nan 11 10 10 13 12 11 11 15 15 7 6 11 15 14 12 14 17 17 13 13 14 11 9 10 11 11 11 10 10 11 10 9 13 11 11 11 11 12 12 11 10 nan
nan 13 11 11 11 11 12 10 10 10 11 13 14 11 6 11 12 11 11 17 19 15 11 14 12 9 10 10 11 10 10 10 10 10 11 11 10 11 11 10 11 10 nan
nan 13 13 11 12 11 11 11 11 12 10 11 11 11 9 5 6 11 10 6 7 15 19 13 11 10 7 6 9 9 9 10 11 12 11 7 9 12 11 10 12 12 nan
nan 11 12 15 16 12 11 12 12 12 12 11 12 13 11 10 11 7 9 11 8 7 8 13 18 15 12 11 7 7 12 11 9 6 12 13 11 10 10 10 10 12 nan
nan nan nan nan nan nan nan nan nan nan nan nan nan nan nan nan nan nan nan nan nan nan nan nan nan nan nan nan nan nan nan nan nan nan nan nan nan nan nan nan nan nan nan
CAPE
2396 2433 2376 2147 1854 1686 1444 1570 1254 1171 1217 1108 1156 1075 936 826 477 285 827 1093 1285 713 519 295 100 126 162 79 50 40 42 11 0 0 0 0 0 0 0 0 0 0 0
2377 2288 2445 2290 2033 1791 1606 1582 1583 1554 1527 1293 1121 1230 927 1159 1130 1129 895 1434 1282 558 106 103 36 52 44 25 0 104 119 16 1 0 0 0 0 0 0 0 0 0 0
2536 2384 2463 2336 2168 1956 1755 1358 1689 1703 1683 1508 1021 744 820 887 951 781 809 1194 866 707 72 22 17 5 21 0 0 0 0 0 0 0 0 0 0 0 0 0 0 0 0
2428 2443 2475 2445 2238 2036 1788 1539 1610 1790 1731 1635 1085 804 726 849 765 721 872 793 800 668 31 12 11 2 2 0 0 0 0 0 0 0 0 0 0 0 0 0 0 0 0
2274 2389 2336 2125 1999 1771 1717 1711 1593 1560 1614 1609 834 832 813 459 738 756 970 625 559 130 4 1 14 0 0 0 0 0 0 0 0 0 0 0 0 0 0 0 0 0 0
2287 2323 2241 2238 1872 1880 2040 1632 1671 1524 1516 956 661 441 350 856 622 490 726 412 181 0 0 0 0 0 0 0 0 0 3 0 0 0 0 0 0 0 0 0 0 0 0
2388 2209 2601 2356 2288 2031 1261 1586 1553 1408 961 781 600 262 239 394 373 357 608 382 116 1 0 0 0 0 0 0 0 0 0 0 0 0 0 0 0 0 0 0 0 0 0
3182 2745 2302 2126 1895 1925 1354 1396 1468 1087 689 636 504 243 351 407 145 88 368 93 3 0 0 0 0 0 0 0 0 0 0 0 0 0 0 0 0 0 0 0 0 0 0
3355 2896 2556 2340 2214 1868 1548 1554 1175 688 710 642 484 301 195 116 0 0 0 0 0 0 0 0 0 0 0 0 0 0 0 0 0 0 0 0 0 0 0 0 0 0 0
2935 3076 2670 2295 2079 1998 1658 1322 822 819 980 559 488 332 208 8 0 0 0 0 0 0 0 0 0 0 0 0 0 0 0 0 0 0 0 0 0 0 0 0 0 0 0
3029 3127 2692 2379 2109 1889 1428 1209 1114 1194 1129 895 442 342 417 121 0 0 0 0 0 0 0 0 0 0 0 0 0 0 0 0 0 0 0 0 0 0 0 0 0 0 0
3130 3035 2823 2474 2218 2023 1608 1252 1211 1153 1093 838 550 317 243 301 0 0 0 0 0 0 0 0 0 0 0 0 0 0 0 0 0 0 0 0 0 0 0 0 0 0 0
3109 3077 2783 2529 2152 1749 1590 1461 1237 1061 985 841 707 619 584 92 0 0 0 0 0 0 0 0 0 0 0 0 0 0 0 0 0 0 0 0 0 0 0 0 0 0 0
3154 3049 2747 2636 2220 1737 1653 1488 1092 1054 952 881 796 898 816 519 56 0 0 0 0 0 0 0 0 0 0 0 0 0 0 0 0 0 0 0 0 0 0 0 0 0 0
3131 3106 2825 2547 1835 1782 1640 1618 1234 1142 1128 866 1072 1006 924 772 542 45 0 0 0 0 0 0 0 0 0 0 0 0 0 0 0 0 0 0 0 0 0 0 0 0 0
3168 3066 2794 2480 2158 1866 1681 1520 1420 1283 1310 1159 647 881 974 849 677 138 0 0 0 0 0 0 0 0 0 0 0 0 0 0 0 0 0 0 0 0 0 0 0 0 0
2028 2646 2565 2314 2300 1838 1425 1690 1572 1102 203 95 305 398 639 842 399 1 0 0 0 0 0 0 0 0 0 0 0 0 0 0 0 0 0 0 0 0 0 0 0 0 0
909 844 580 984 1049 450 359 252 237 553 921 841 88 0 0 268 53 0 0 1 0 0 0 0 0 0 0 0 0 0 0 0 0 0 0 0 0 0 0 0 0 0 0
468 424 777 473 116 5 0 0 55 12 11 67 148 4 0 1 0 1 1 2 0 0 0 0 0 0 0 0 0 0 0 0 0 0 0 0 0 0 0 0 0 0 0
196 240 611 401 359 323 86 16 13 0 30 0 0 0 1 0 0 1 0 3 13 0 0 0 0 0 0 0 0 0 0 0 0 0 0 0 0 0 0 0 0 0 0
0 19 345 437 127 151 225 107 91 160 104 0 0 0 0 0 4 85 1 0 110 175 31 0 0 0 0 0 0 0 0 0 0 0 0 0 0 0 0 0 0 0 0
0 0 96 214 381 19 0 0 79 43 0 0 0 0 0 0 0 8 169 99 11 267 278 166 39 6 3 5 1 0 0 0 0 0 0 0 0 0 0 0 0 0 0
0 0 0 15 95 88 16 11 0 0 0 0 0 9 153 218 179 124 178 223 178 140 239 292 327 330 175 46 21 34 15 0 0 0 0 0 0 0 0 0 0 0 0
0 0 0 0 187 129 3 6 34 24 0 0 0 22 85 73 1 1 28 67 76 263 367 303 392 657 642 694 543 211 169 152 56 0 0 0 0 0 0 0 0 0 0
0 0 0 0 32 6 0 0 0 0 0 0 0 18 25 24 35 17 16 0 0 0 0 174 441 396 536 798 1067 1115 867 287 175 163 28 0 0 0 0 0 0 0 0
0 0 0 0 0 76 165 81 3 0 0 0 0 58 88 0 12 16 31 0 0 4 0 7 101 531 585 648 759 910 985 127 0 0 55 178 78 24 8 5 1 0 0